CW2157 Weather Reports


time (UTC)temp
C
wind
direction
speed
KPH
gust
KPH
rain 1hr
cm
rain 24hr
cm
rain mn
cm
humidity
%
barometer
mb
20260902194204 23 163 3.2 4.8 0.03 0.25 0.25 88 1015.9
20260902193704 23 141 4.8 12.9 0.03 0.25 0.25 87 1015.9
20260902192204 24 129 1.6 8.0 0.03 0.25 0.25 88 1015.8
20260902191704 24 236 3.2 4.8 0.03 0.25 0.25 87 1016.0
20260902191204 24 108 3.2 8.0 0.05 0.25 0.25 89 1016.3
20260902190704 24 134 3.2 12.9 0.08 0.25 0.25 89 1016.2
20260902190204 24 129 8.0 16.1 0.15 0.23 0.23 89 1016.3
20260902185207 24 102 8.0 12.9 0.23 0.23 0.23 87 1017.5
20260902184704 24 66 6.4 19.3 0.23 0.23 0.23 87 1017.6
20260902184204 24 88 11.3 19.3 0.23 0.23 0.23 87 1017.2
20260902183704 24 84 11.3 19.3 0.23 0.23 0.23 88 1016.9
20260902183204 24 40 4.8 9.7 0.23 0.23 0.23 86 1017.2
20260902182704 24 17 4.8 8.0 0.23 0.23 0.23 86 1017.1
20260902181704 25 293 6.4 11.3 0.23 0.23 0.23 83 1017.7
20260902180704 26 323 8.0 20.9 0.18 0.18 0.18 78 1018.5
20260902180204 27 344 16.1 46.7 0.08 0.08 0.08 71 1019.0
20260902175704 28 341 19.3 35.4 0.00 0.00 0.00 68 1018.8
20260902175205 30 1 9.7 19.3 0.00 0.00 0.00 72 1018.5
20260902174704 30 341 3.2 9.7 0.00 0.00 0.00 72 1017.8
20260902174204 30 308 0.0 3.2 0.00 0.00 0.00 74 1017.5
20260902173704 30 65 4.8 4.8 0.00 0.00 0.00 72 1017.5
20260902173204 30 27 8.0 11.3 0.00 0.00 0.00 73 1017.2
20260902172704 30 71 1.6 4.8 0.00 0.00 0.00 73 1017.2
20260902172204 30 100 3.2 8.0 0.00 0.00 0.00 73 1017.2
20260902170704 30 56 4.8 8.0 0.00 0.00 0.00 72 1016.9
20260902170205 30 59 3.2 8.0 0.00 0.00 0.00 71 1016.9
20260902165704 30 237 3.2 12.9 0.00 0.00 0.00 72 1016.9
20260902165204 30 27 6.4 9.7 0.00 0.00 0.00 71 1016.8
20260902164704 30 152 4.8 9.7 0.00 0.00 0.00 75 1016.7
20260902164204 30 116 6.4 12.9 0.00 0.00 0.00 75 1016.7
20260902163704 30 55 4.8 12.9 0.00 0.00 0.00 72 1016.7
20260902163204 30 105 4.8 12.9 0.00 0.00 0.00 74 1016.7
20260902162705 30 139 4.8 11.3 0.00 0.00 0.00 74 1016.7
20260902161704 30 72 11.3 19.3 0.00 0.00 0.00 74 1016.7
20260902160704 30 103 4.8 16.1 0.00 0.00 0.00 74 1016.7
20260902160204 30 62 9.7 16.1 0.00 0.00 0.00 74 1016.8
20260902155704 29 2 1.6 8.0 0.00 0.00 0.00 74 1016.9
20260902155204 29 11 8.0 19.3 0.00 0.00 0.00 74 1017.0
20260902154705 29 80 9.7 19.3 0.00 0.00 0.00 76 1016.9
20260902154204 29 26 8.0 19.3 0.00 0.00 0.00 73 1016.9
20260902153704 29 102 4.8 11.3 0.00 0.00 0.00 75 1016.8
20260902153205 29 106 9.7 14.5 0.00 0.00 0.00 76 1016.9
20260902152204 28 39 6.4 19.3 0.00 0.00 0.00 76 1017.0
20260902151704 28 49 11.3 19.3 0.00 0.00 0.00 77 1016.9
20260902151204 28 110 8.0 16.1 0.00 0.00 0.00 77 1016.9
20260902150205 28 101 8.0 16.1 0.00 0.00 0.00 78 1016.9
20260902145704 28 92 14.5 19.3 0.00 0.00 0.00 77 1016.9
20260902145204 28 81 14.5 19.3 0.00 0.00 0.00 78 1016.8
20260902144704 28 76 9.7 20.9 0.00 0.00 0.00 78 1016.7
20260902144204 27 109 8.0 19.3 0.00 0.00 0.00 79 1016.7
20260902143704 27 123 11.3 19.3 0.00 0.00 0.00 80 1016.6
20260902143205 27 71 14.5 20.9 0.00 0.00 0.00 80 1016.7
20260902142705 27 86 11.3 19.3 0.00 0.00 0.00 79 1016.7
20260902141204 27 55 9.7 14.5 0.00 0.00 0.00 80 1016.9
20260902140704 27 94 9.7 16.1 0.00 0.00 0.00 80 1016.9
20260902140204 27 87 12.9 19.3 0.00 0.00 0.00 82 1017.0
20260902135704 26 80 11.3 14.5 0.00 0.00 0.00 80 1017.0
20260902135204 26 46 4.8 14.5 0.00 0.00 0.00 82 1017.0
20260902134704 26 80 9.7 19.3 0.00 0.00 0.00 84 1017.0
20260902134204 26 58 12.9 19.3 0.00 0.00 0.00 84 1016.8
20260902133704 26 51 9.7 14.5 0.00 0.00 0.00 83 1016.7
20260902132704 26 74 11.3 19.3 0.00 0.00 0.00 83 1016.5
20260902131704 26 67 12.9 20.9 0.00 0.00 0.00 83 1016.4
20260902131204 26 87 14.5 24.1 0.00 0.00 0.00 85 1016.4
20260902130704 26 83 16.1 20.9 0.00 0.00 0.00 83 1016.4
20260902130204 26 85 16.1 22.5 0.00 0.00 0.00 84 1016.4
20260902125704 25 73 19.3 22.5 0.00 0.00 0.00 85 1016.4
20260902124704 25 57 14.5 19.3 0.00 0.00 0.00 85 1016.4
20260902124204 25 73 14.5 20.9 0.00 0.00 0.00 86 1016.3
20260902123704 25 73 8.0 19.3 0.00 0.00 0.00 85 1016.3
20260902123204 25 72 11.3 19.3 0.00 0.00 0.00 85 1016.3
20260902122704 25 73 12.9 20.9 0.00 0.00 0.00 85 1016.3
20260902122204 25 58 8.0 16.1 0.00 0.00 0.00 87 1016.3
20260902121704 24 68 8.0 12.9 0.00 0.00 0.00 87 1016.3
20260902121204 24 58 9.7 16.1 0.00 0.00 0.00 87 1016.3
20260902120705 24 72 9.7 19.3 0.00 0.00 0.00 87 1016.3
20260902120204 24 58 14.5 19.3 0.00 0.00 0.00 88 1016.3
20260902115203 24 65 12.9 19.3 0.00 0.00 0.00 88 1016.4
20260902114704 23 58 14.5 16.1 0.00 0.00 0.00 89 1016.3
20260902114204 23 72 12.9 19.3 0.00 0.00 0.00 91 1016.2
20260902113704 23 83 9.7 14.5 0.00 0.00 0.00 91 1016.2
20260902112704 23 68 11.3 16.1 0.00 0.00 0.00 92 1016.2
20260902112204 23 67 8.0 16.1 0.00 0.00 0.00 92 1016.1
20260902111704 23 71 9.7 14.5 0.00 0.00 0.00 92 1016.0
20260902111204 23 62 6.4 12.9 0.00 0.00 0.00 92 1016.0
20260902110704 23 50 3.2 8.0 0.00 0.00 0.00 92 1016.0
20260902105704 22 58 1.6 4.8 0.00 0.00 0.00 91 1015.8
20260902105204 22 28 3.2 4.8 0.00 0.00 0.00 91 1015.8
20260902104704 22 20 3.2 8.0 0.00 0.00 0.00 91 1015.6
20260902103704 22 67 3.2 4.8 0.00 0.00 0.00 90 1015.6
20260902103204 22 78 3.2 4.8 0.00 0.00 0.00 90 1015.4
20260902100704 22 24 0.0 0.0 0.00 0.00 0.00 90 1015.5
20260902100204 22 24 1.6 1.6 0.00 0.00 0.00 90 1015.6
20260902095704 22 24 0.0 1.6 0.00 0.00 0.00 90 1015.5
20260902095204 22 24 1.6 3.2 0.00 0.00 0.00 90 1015.5
20260902094705 22 24 0.0 3.2 0.00 0.00 0.00 89 1015.4
20260902094205 22 24 0.0 0.0 0.00 0.00 0.00 89 1015.3
20260902093706 22 24 0.0 3.2 0.00 0.00 0.00 89 1015.3
20260902093206 22 24 1.6 3.2 0.00 0.00 0.00 89 1015.4
20260902092206 22 337 0.0 1.6 0.00 0.00 0.00 88 1015.4
20260902091706 23 325 0.0 1.6 0.00 0.00 0.00 88 1015.4
20260902091205 23 334 0.0 1.6 0.00 0.00 0.00 88 1015.3
20260902090705 23 334 0.0 3.2 0.00 0.00 0.00 87 1015.4
20260902090206 23 349 0.0 0.0 0.00 0.00 0.00 87 1015.6
20260902085705 23 10 0.0 1.6 0.00 0.00 0.00 87 1015.4
20260902085206 23 10 1.6 3.2 0.00 0.00 0.00 87 1015.4
20260902084706 23 10 0.0 1.6 0.00 0.00 0.00 87 1015.4
20260902084205 23 10 0.0 3.2 0.00 0.00 0.00 86 1015.3
20260902083706 23 10 1.6 3.2 0.00 0.00 0.00 86 1015.3
20260902083205 23 88 1.6 1.6 0.00 0.00 0.00 86 1015.4
20260902082205 23 131 0.0 3.2 0.00 0.00 0.00 86 1015.3
20260902081705 23 131 1.6 3.2 0.00 0.00 0.00 85 1015.1
20260902080705 23 86 3.2 4.8 0.00 0.00 0.00 85 1015.1
20260902080206 23 60 1.6 4.8 0.00 0.00 0.00 86 1015.1
20260902075706 23 91 0.0 3.2 0.00 0.00 0.00 86 1015.1
20260902075205 24 114 1.6 4.8 0.00 0.00 0.00 85 1015.0
20260902074705 24 105 1.6 4.8 0.00 0.00 0.00 85 1015.0
20260902074206 24 105 1.6 3.2 0.00 0.00 0.00 85 1015.0
20260902073705 24 105 1.6 4.8 0.00 0.00 0.00 86 1014.9
20260902073205 24 105 1.6 4.8 0.00 0.00 0.00 85 1014.8
20260902072705 24 100 3.2 4.8 0.00 0.00 0.00 85 1014.9
20260902072206 24 96 1.6 4.8 0.00 0.00 0.00 85 1014.9
20260902071705 24 101 3.2 4.8 0.00 0.00 0.00 85 1014.8
20260902071206 24 108 3.2 4.8 0.00 0.00 0.00 84 1014.6
20260902070706 24 141 3.2 4.8 0.00 0.00 0.00 85 1014.7
20260902070206 24 120 1.6 4.8 0.00 0.00 0.00 85 1014.7
20260902065705 24 92 3.2 8.0 0.00 0.00 0.00 85 1014.6
20260902064705 24 111 3.2 9.7 0.00 0.00 0.00 85 1014.6
20260902064205 24 96 4.8 11.3 0.00 0.00 0.00 85 1014.6
20260902063705 25 82 3.2 9.7 0.00 0.00 0.00 84 1014.7
20260902063205 25 86 6.4 19.3 0.00 0.00 0.00 84 1014.8
20260902062705 25 98 4.8 14.5 0.00 0.00 0.00 83 1014.7
20260902061705 25 67 9.7 16.1 0.00 0.00 0.00 83 1015.0
20260902060705 25 33 8.0 14.5 0.00 0.00 0.00 82 1015.3
20260902055205 25 107 8.0 20.9 0.00 0.00 0.00 82 1014.8
20260902054706 25 79 4.8 20.9 0.00 0.00 0.00 80 1014.6
20260902054206 25 67 16.1 22.5 0.00 0.00 0.00 81 1014.9
20260902053706 25 109 11.3 22.5 0.00 0.00 0.00 80 1014.5
20260902052705 26 188 0.0 1.6 0.00 0.00 0.00 80 1014.1
20260902051705 26 202 1.6 3.2 0.00 0.00 0.00 79 1014.1
20260902051205 26 122 1.6 3.2 0.00 0.00 0.00 80 1014.2
20260902045705 26 149 1.6 4.8 0.00 0.00 0.00 81 1014.2
20260902045205 26 118 1.6 4.8 0.00 0.00 0.00 81 1014.2
20260902044705 26 87 3.2 4.8 0.00 0.00 0.00 81 1014.4
20260902043705 26 66 4.8 8.0 0.00 0.00 0.00 80 1014.3
20260902042705 26 93 4.8 16.1 0.00 0.00 0.00 82 1014.5
20260902042206 26 94 8.0 16.1 0.00 0.00 0.00 80 1014.4
20260902041705 27 91 11.3 19.3 0.00 0.00 0.00 84 1014.6
20260902041206 27 80 6.4 9.7 0.00 0.00 0.00 85 1014.5
20260902040705 27 75 4.8 11.3 0.00 0.00 0.00 85 1014.4
20260902040205 27 81 4.8 8.0 0.00 0.00 0.00 86 1014.5
20260902035705 27 67 4.8 8.0 0.00 0.00 0.00 86 1014.4
20260902035206 27 127 3.2 4.8 0.00 0.00 0.00 86 1014.3
20260902034705 27 318 1.6 3.2 0.00 0.00 0.00 86 1014.2
20260902034206 27 317 1.6 4.8 0.00 0.00 0.00 86 1014.1
20260902033705 27 39 1.6 16.1 0.00 0.00 0.00 87 1014.1
20260902033205 27 65 11.3 16.1 0.00 0.00 0.00 89 1013.9
20260902032206 27 88 0.0 3.2 0.00 0.00 0.00 88 1013.6
20260902031705 27 142 1.6 3.2 0.00 0.00 0.00 88 1013.6
20260902031206 27 142 1.6 3.2 0.00 0.00 0.00 88 1013.6
20260902030206 27 122 0.0 1.6 0.00 0.00 0.00 87 1013.5
20260902025706 27 122 0.0 1.6 0.00 0.00 0.00 87 1013.5
20260902024205 27 268 0.0 1.6 0.00 0.00 0.00 86 1013.2
20260902023705 27 268 0.0 3.2 0.00 0.00 0.00 87 1013.2
20260902023205 27 268 0.0 3.2 0.00 0.00 0.00 87 1013.1
20260902022705 27 228 3.2 4.8 0.00 0.00 0.00 87 1013.2
20260902021705 27 164 1.6 3.2 0.00 0.00 0.00 86 1013.2
20260902021206 27 139 1.6 3.2 0.00 0.00 0.00 86 1013.3
20260902020705 27 192 4.8 8.0 0.00 0.00 0.00 86 1013.3
20260902015705 27 237 9.7 11.3 0.00 0.00 0.00 86 1012.9
20260902015205 27 234 8.0 16.1 0.00 0.00 0.00 86 1012.9
20260902014705 27 240 11.3 19.3 0.00 0.00 0.00 86 1012.8
20260902013705 27 225 12.9 19.3 0.00 0.00 0.00 85 1012.6
20260902013205 27 217 14.5 20.9 0.00 0.00 0.00 85 1012.5
20260902012705 27 209 14.5 19.3 0.00 0.00 0.00 84 1012.5
20260902012205 27 219 14.5 19.3 0.00 0.00 0.00 84 1012.5
20260902011705 27 214 12.9 14.5 0.00 0.00 0.00 83 1012.5
20260902011205 27 217 11.3 14.5 0.00 0.00 0.00 83 1012.6
20260902010705 27 214 11.3 16.1 0.00 0.00 0.00 83 1012.7
20260902010205 27 223 11.3 16.1 0.00 0.00 0.00 83 1012.7
20260902005705 27 227 12.9 19.3 0.00 0.00 0.00 82 1012.6
20260902005205 27 216 14.5 19.3 0.00 0.00 0.00 82 1012.6
20260902004705 27 219 14.5 19.3 0.00 0.00 0.00 82 1012.3
20260902004205 27 227 14.5 19.3 0.00 0.00 0.00 82 1012.3
20260902003705 28 225 14.5 19.3 0.00 0.00 0.00 82 1012.2
20260902003205 28 222 14.5 19.3 0.00 0.00 0.00 81 1011.9
20260902002706 28 221 14.5 16.1 0.00 0.00 0.00 81 1011.7
20260902002205 28 221 14.5 19.3 0.00 0.00 0.00 81 1011.3
20260902001705 28 221 16.1 19.3 0.00 0.00 0.00 80 1011.2
20260902001205 28 216 16.1 19.3 0.00 0.00 0.00 80 1011.2
20260902000705 28 220 16.1 19.3 0.00 0.00 0.00 79 1011.4
20260902000205 28 212 14.5 19.3 0.00 0.00 0.00 78 1011.6
20260901234705 28 232 9.7 14.5 0.00 0.00 0.00 78 1011.8
20260901234205 29 224 11.3 14.5 0.00 0.00 0.00 77 1011.8
20260901233705 29 219 11.3 19.3 0.00 0.00 0.00 77 1011.8
20260901233205 29 216 12.9 16.1 0.00 0.00 0.00 77 1011.8
20260901232705 29 211 11.3 16.1 0.00 0.00 0.00 76 1011.7
20260901232205 30 211 9.7 16.1 0.00 0.00 0.00 76 1011.9
20260901231704 30 208 11.3 14.5 0.00 0.00 0.00 76 1011.9
20260901230705 30 205 9.7 12.9 0.00 0.00 0.00 75 1012.1
20260901230205 30 211 9.7 16.1 0.00 0.00 0.00 75 1012.0
20260901225705 30 200 9.7 12.9 0.00 0.00 0.00 75 1012.1
20260901225205 30 203 11.3 16.1 0.00 0.00 0.00 74 1012.1
20260901224705 30 198 12.9 16.1 0.00 0.00 0.00 74 1012.1
20260901224205 30 204 12.9 19.3 0.00 0.00 0.00 73 1012.0
20260901223205 31 197 11.3 19.3 0.00 0.00 0.00 74 1012.0
20260901222705 31 207 14.5 19.3 0.00 0.00 0.00 73 1012.1
20260901222205 31 201 14.5 20.9 0.00 0.00 0.00 72 1012.0
20260901221705 31 198 11.3 19.3 0.00 0.00 0.00 72 1012.0
20260901221205 31 210 12.9 19.3 0.00 0.00 0.00 72 1012.2
20260901220206 31 207 12.9 19.3 0.00 0.00 0.00 71 1012.3
20260901215705 31 195 11.3 19.3 0.00 0.00 0.00 70 1012.2
20260901215205 31 187 11.3 16.1 0.00 0.00 0.00 69 1012.2
20260901214705 31 197 11.3 19.3 0.00 0.00 0.00 69 1012.3
20260901214205 32 193 9.7 14.5 0.00 0.00 0.00 69 1012.5
20260901213705 32 192 11.3 16.1 0.00 0.00 0.00 69 1012.5
20260901213205 32 197 11.3 19.3 0.00 0.00 0.00 67 1012.4
20260901212705 32 200 11.3 16.1 0.00 0.00 0.00 66 1012.4
20260901212205 32 189 11.3 19.3 0.00 0.00 0.00 67 1012.5
20260901211205 33 192 14.5 19.3 0.00 0.00 0.00 65 1012.6
20260901210705 33 198 9.7 16.1 0.00 0.00 0.00 64 1012.6
20260901210205 33 195 11.3 19.3 0.00 0.00 0.00 63 1012.6
20260901205705 33 193 12.9 19.3 0.00 0.00 0.00 63 1012.7
20260901205206 33 188 11.3 16.1 0.00 0.00 0.00 63 1012.7
20260901204705 34 196 11.3 16.1 0.00 0.00 0.00 65 1012.7
20260901204205 33 181 11.3 19.3 0.00 0.00 0.00 65 1012.7
20260901203205 33 196 8.0 14.5 0.00 0.00 0.00 66 1012.7
20260901202705 33 205 9.7 14.5 0.00 0.00 0.00 67 1012.7
20260901201705 33 204 11.3 14.5 0.00 0.00 0.00 67 1012.9
20260901201205 33 201 9.7 12.9 0.00 0.00 0.00 67 1012.9
20260901200705 33 209 9.7 19.3 0.00 0.00 0.00 67 1012.9
20260901200205 33 188 9.7 16.1 0.00 0.00 0.00 64 1012.9
20260901195704 33 198 11.3 16.1 0.00 0.00 0.00 65 1013.0
20260901195205 33 184 9.7 14.5 0.00 0.00 0.00 64 1013.1